GFSNE_850_thetae_150.txt.gz
Theta_e
314 314 313 314 315 316 316 316 317 319 317 320 319 319 321 321 321 321 320 319 318 317 318 317 316 316 315 316 317 317 316 316 317 317 318 318 317 318
313 312 313 313 316 317 315 316 316 316 318 318 317 317 319 319 318 317 317 317 314 313 313 315 314 314 314 315 315 314 312 311 314 314 311 309 309 306
311 311 311 312 312 313 313 314 317 316 318 318 317 318 317 317 317 316 314 312 312 313 314 313 312 309 300 298 296 296 296 299 301 300 295 294 295 295
311 311 311 310 311 312 312 313 313 314 315 317 316 316 316 316 314 313 312 311 311 311 307 308 306 299 296 294 294 294 294 294 294 294 294 294 294 294
307 308 310 310 310 310 310 311 312 312 312 313 314 314 314 312 311 309 308 304 299 297 295 294 294 293 294 294 293 293 293 293 293 293 293 293 294 293
306 308 310 310 310 310 310 310 309 310 310 311 311 311 310 309 308 299 294 293 293 293 293 293 293 293 293 293 293 293 293 293 292 292 292 292 293 293
299 300 302 303 305 303 299 297 297 300 298 296 296 296 295 294 294 293 293 292 293 293 293 292 293 292 293 293 293 293 293 292 292 292 292 292 292 292
296 296 296 295 295 294 294 293 293 293 293 293 293 293 292 292 292 292 292 293 292 293 293 292 292 293 292 292 292 291 291 291 291 292 291 291 291 291
295 295 294 294 294 293 293 292 292 292 292 292 292 292 292 292 291 291 291 292 292 292 292 292 292 292 291 291 291 291 291 291 290 291 291 291 290 290
294 294 293 293 293 292 292 292 292 292 292 292 292 291 291 291 291 291 291 291 290 291 291 291 291 291 291 291 291 290 290 289 289 290 290 290 290 291
294 293 293 293 292 292 291 292 292 291 291 291 291 291 291 290 290 290 290 291 290 290 290 290 290 291 291 290 290 289 289 289 289 289 290 290 290 290
294 293 293 292 292 292 291 291 291 291 291 291 291 291 291 290 290 290 290 290 289 289 289 288 289 288 289 289 289 289 289 289 289 289 290 290 290 290
294 294 293 292 292 291 291 291 291 291 291 291 290 290 290 290 290 289 289 288 288 288 287 287 287 287 287 288 289 289 289 288 289 289 290 290 290 289
294 293 293 292 292 291 291 291 291 291 291 290 290 290 290 290 289 289 288 288 288 288 287 287 287 287 287 287 288 289 289 289 289 289 289 289 289 290
294 293 293 292 292 291 291 291 291 291 290 290 290 289 289 289 289 288 288 287 287 287 287 286 286 287 287 286 286 288 287 289 289 287 287 287 288 288
294 293 293 292 292 291 291 291 291 291 290 290 289 289 289 289 289 289 288 287 287 287 286 286 286 286 287 287 286 287 287 286 288 287 285 286 288 288
294 293 292 292 292 291 291 291 291 291 290 290 289 289 289 289 289 288 287 287 287 287 287 286 286 286 286 286 286 287 286 287 286 286 286 287 289 288
294 293 293 292 292 292 291 291 291 291 290 290 288 288 288 288 288 287 287 286 286 286 286 286 286 286 286 287 286 285 286 285 285 286 287 285 288 289
294 293 293 292 292 292 292 291 291 291 290 290 289 288 288 287 287 287 286 286 286 286 286 285 285 283 282 282 286 285 285 285 286 286 286 285 286 288
293 294 293 292 292 292 292 291 291 291 290 290 289 288 288 287 287 286 286 285 285 285 285 285 284 283 282 282 282 287 285 285 284 284 285 286 287 287
295 295 295 293 292 292 294 293 291 291 290 290 289 288 288 287 286 286 285 285 284 284 285 285 285 284 284 283 283 285 286 284 284 285 285 285 286 287
298 296 294 294 293 292 293 292 292 291 291 290 291 288 287 286 286 285 285 284 284 284 284 284 284 284 284 281 282 282 284 285 285 285 285 285 286 287
298 297 295 294 293 292 293 292 292 292 290 290 291 288 287 286 286 285 285 284 284 284 283 283 283 283 283 281 282 283 283 284 285 286 288 288 288 289

GFSNE_850_thetae_153.txt.gz
Theta_e
313 313 312 313 314 314 314 314 316 316 317 318 318 317 317 318 319 319 319 319 317 316 316 315 315 315 315 314 314 315 316 315 314 314 315 316 317 317
311 311 311 311 311 312 312 313 314 315 316 317 318 316 316 317 317 316 316 315 315 313 313 313 314 313 313 312 312 312 312 311 310 308 308 308 309 303
312 311 311 311 310 311 311 312 313 314 315 315 316 317 316 316 315 315 315 314 312 312 312 312 310 309 305 301 297 295 295 295 295 295 297 296 296 296
305 307 309 311 310 310 309 310 311 312 313 314 313 312 313 314 314 313 313 312 311 310 308 305 301 297 296 295 294 294 294 294 294 293 294 294 294 294
305 308 309 309 310 310 309 309 310 310 310 311 312 311 311 311 310 310 309 308 302 297 294 294 293 293 293 293 294 293 293 293 293 294 294 293 294 294
302 304 304 309 309 310 309 309 309 304 305 308 309 310 309 307 306 301 295 294 293 293 293 293 293 293 293 293 293 293 294 294 294 294 293 293 293 293
298 297 297 296 296 298 299 297 295 295 298 300 298 297 296 295 294 294 293 293 293 293 292 292 292 292 292 293 293 293 294 293 293 292 292 292 292 292
296 296 296 295 295 294 294 293 293 293 293 293 293 293 293 293 292 292 292 293 292 293 292 292 292 292 292 292 292 292 291 291 291 291 291 291 291 291
296 295 295 294 294 293 293 293 293 292 292 292 292 292 292 292 292 292 292 292 292 292 292 292 292 291 291 291 291 291 291 290 290 290 290 290 290 290
295 294 294 294 293 293 293 292 292 292 292 292 292 292 292 291 292 291 291 291 291 291 291 292 291 291 291 291 291 290 289 290 290 289 290 290 290 290
295 295 294 294 293 293 292 292 292 292 292 292 292 292 291 291 291 291 291 291 291 291 291 291 291 291 291 290 290 289 289 289 289 289 290 290 290 290
295 294 294 294 293 293 292 292 292 292 291 291 291 291 291 291 291 290 291 291 291 291 291 290 290 289 289 289 289 288 289 288 289 289 289 290 290 289
295 294 294 294 293 293 292 292 291 291 291 291 291 290 290 290 290 290 290 290 290 289 289 288 288 288 288 288 288 288 288 288 289 289 289 289 289 287
295 294 294 293 293 292 292 291 291 291 291 291 291 290 290 290 289 289 289 289 289 288 287 287 287 287 287 287 287 288 288 289 288 288 288 288 289 289
296 294 293 293 292 292 292 291 291 291 291 291 291 290 290 289 289 289 289 288 288 287 287 287 287 287 286 286 286 287 288 289 288 287 287 288 289 289
298 294 293 292 292 292 291 291 291 291 291 290 290 290 289 289 289 289 289 288 287 287 287 286 286 286 286 286 286 287 287 286 288 287 287 288 289 288
297 296 294 292 292 291 291 291 291 290 290 291 290 289 289 288 289 289 289 288 287 287 286 286 286 286 286 286 286 286 287 287 286 285 286 287 289 289
295 295 295 293 292 292 291 291 291 291 291 290 290 290 288 288 288 289 288 287 287 286 286 286 286 286 286 286 285 286 286 286 286 287 286 285 287 289
295 296 295 294 294 293 292 291 291 291 291 290 290 290 288 288 288 288 287 287 287 286 286 286 285 285 284 284 284 284 284 285 285 286 285 284 284 288
295 295 296 296 295 293 292 292 291 291 291 290 290 289 289 288 288 287 287 287 286 286 285 285 285 284 283 282 282 285 284 285 283 284 284 284 286 287
299 297 297 297 295 293 292 292 292 291 291 290 290 290 290 290 288 287 286 286 285 285 285 285 284 284 283 283 282 285 286 285 283 284 285 285 285 288
297 296 296 295 295 294 294 292 292 292 293 291 291 291 291 290 289 286 286 286 285 284 284 284 284 283 283 282 282 282 284 286 285 286 286 286 287 286
297 297 296 295 294 293 293 293 292 292 292 291 291 291 290 290 287 286 285 285 285 284 284 284 283 281 282 281 280 281 283 283 284 287 288 288 288 289

GFSNE_850_thetae_159.txt.gz
Theta_e
310 311 311 311 311 310 310 310 311 311 310 314 315 314 314 314 314 314 315 316 316 316 316 316 316 316 316 314 314 314 314 313 314 314 315 315 314 313
310 310 311 309 308 310 310 310 310 310 311 311 311 312 313 313 314 312 313 314 314 314 314 314 313 313 313 312 311 311 310 310 309 309 308 306 304 304
310 309 308 305 308 308 310 310 309 309 309 309 310 310 311 311 312 312 312 312 312 311 311 311 311 309 310 309 308 306 305 302 299 297 296 295 295 295
310 309 307 301 305 308 308 309 309 308 308 308 309 308 307 308 309 310 311 310 310 309 306 303 299 297 296 295 294 295 295 295 295 295 295 295 295 295
309 307 304 298 301 303 309 309 309 308 308 308 307 306 306 307 308 309 309 309 303 299 297 296 295 295 294 294 294 294 294 294 294 294 294 295 295 295
306 305 298 297 298 297 299 302 305 306 305 303 298 299 305 307 306 308 305 299 296 295 294 293 293 294 294 294 294 294 294 294 294 294 294 294 294 294
298 298 297 296 296 296 295 295 295 295 294 294 294 296 299 301 300 297 295 293 293 293 293 293 293 293 293 294 294 294 294 294 294 294 293 293 292 293
297 296 296 296 296 296 295 294 294 293 293 293 293 293 293 293 293 293 292 292 292 292 293 293 293 293 293 292 293 293 293 293 292 292 291 291 291 291
298 296 296 296 296 295 295 294 293 293 292 292 292 292 292 293 293 292 292 292 292 292 292 293 293 292 292 292 292 292 292 292 290 290 290 290 290 290
301 298 296 296 295 295 294 294 293 293 292 292 292 292 292 292 292 292 292 292 291 292 292 292 293 292 292 292 292 292 291 290 289 289 289 289 289 290
303 301 298 296 295 294 294 294 293 293 292 292 291 291 291 291 291 291 291 291 291 291 292 291 292 291 291 291 291 290 290 289 288 288 288 289 289 290
304 302 301 299 296 294 294 294 293 293 292 291 291 291 291 291 291 291 290 290 290 290 292 291 291 290 291 291 290 290 289 288 288 288 288 289 289 289
303 303 301 299 297 295 294 294 293 292 292 291 291 291 291 291 290 290 290 289 290 290 290 290 290 289 289 289 289 289 288 287 287 288 289 289 289 289
302 302 302 300 298 296 294 294 293 292 292 291 291 291 291 290 290 289 289 289 289 289 289 289 289 288 289 288 288 288 287 287 287 288 288 288 288 288
301 301 301 300 298 296 295 294 293 293 292 292 291 291 290 290 289 289 289 289 289 289 289 289 288 288 288 288 287 288 287 287 287 288 287 288 289 289
299 300 299 299 298 297 295 294 293 293 292 292 291 291 290 290 290 289 289 289 289 289 289 289 288 287 287 287 287 287 286 286 286 286 287 287 288 289
299 299 299 299 298 297 296 295 293 292 292 292 291 290 290 290 290 289 289 288 288 289 289 288 287 287 287 287 287 286 286 285 285 285 286 287 289 289
299 298 298 298 297 297 296 295 294 293 292 292 291 291 290 290 290 289 288 288 288 288 288 287 286 286 286 286 286 286 286 285 285 285 286 287 289 289
298 298 298 298 298 298 297 295 295 295 294 292 291 291 291 290 290 289 288 287 288 287 287 286 286 286 285 285 285 285 285 285 285 286 287 287 288 290
297 297 297 298 298 298 297 296 295 294 294 293 292 292 291 291 290 289 289 287 289 291 286 286 286 285 285 285 285 285 284 284 285 286 287 287 288 289
296 296 296 296 297 297 296 295 295 294 294 293 293 292 292 291 290 289 290 288 290 289 287 286 285 284 284 284 284 284 284 284 284 285 286 286 287 288
297 297 296 296 296 296 296 295 294 293 293 293 292 292 292 291 290 290 290 289 289 289 287 286 284 284 284 283 283 283 284 286 286 286 286 286 286 286
297 297 297 297 296 296 296 295 294 293 293 293 292 292 292 291 290 290 290 289 288 287 286 285 284 284 283 283 282 283 285 285 286 287 288 287 287 288

GFSNE_850_thetae_162.txt.gz
Theta_e
309 309 309 310 310 310 310 310 309 309 309 310 310 310 310 311 312 312 312 313 313 314 314 314 315 314 314 314 314 314 314 313 313 313 313 314 315 315
309 310 309 310 308 305 307 309 309 309 308 309 309 309 309 309 310 311 311 311 312 312 311 312 312 312 312 312 311 311 310 309 308 308 308 307 308 309
309 310 309 308 306 304 307 308 309 309 308 308 308 309 309 308 306 308 311 311 311 311 310 308 308 308 306 305 305 303 302 301 301 299 297 297 296 296
308 309 308 307 304 299 303 307 308 308 308 308 308 308 307 306 306 308 308 309 309 309 304 301 298 296 295 295 295 295 295 295 295 295 295 295 295 295
302 306 307 306 301 297 299 301 307 308 308 307 307 307 305 302 304 306 307 306 308 304 299 298 296 295 294 294 294 295 295 295 295 295 295 295 295 295
298 298 300 301 298 297 297 297 297 299 301 303 302 300 297 298 303 305 306 307 301 296 294 294 293 294 294 294 294 294 295 295 295 295 295 295 295 295
300 298 297 297 297 296 296 296 295 295 294 294 294 293 294 295 299 301 300 296 294 293 293 293 294 294 294 294 295 295 295 295 295 295 294 294 294 293
304 301 298 297 297 296 296 296 295 294 293 293 293 293 293 293 293 293 293 292 292 293 293 293 293 294 293 293 293 294 294 293 293 293 293 292 292 291
306 303 301 299 297 296 296 295 295 294 293 293 292 292 292 292 292 292 292 292 292 292 292 292 293 293 293 293 293 293 293 293 292 291 290 290 290 290
306 305 303 301 298 296 295 295 295 294 293 293 293 292 292 292 292 292 292 291 291 291 291 292 293 293 292 292 292 293 292 292 291 290 290 290 289 289
306 306 305 303 301 297 296 295 295 295 294 293 292 292 292 292 292 291 291 291 290 291 291 291 292 292 292 291 292 292 291 291 290 289 289 289 289 289
303 303 304 304 302 299 297 296 295 295 294 293 292 292 291 291 291 291 291 291 290 290 291 290 291 291 291 291 291 291 290 290 289 289 288 288 289 289
300 301 301 302 302 300 298 297 296 294 293 293 292 292 291 291 291 290 290 290 290 290 290 290 290 290 289 289 289 289 289 288 288 288 288 288 288 288
299 300 300 301 301 300 298 298 297 295 294 293 292 292 291 291 291 290 290 289 289 289 289 289 289 289 288 288 288 289 288 288 288 288 287 288 288 288
299 299 299 300 300 300 299 298 296 295 294 293 293 292 291 290 290 290 290 289 289 289 289 289 288 289 288 288 288 288 288 288 288 288 287 287 287 287
299 299 299 299 299 299 298 298 296 295 294 293 294 292 292 290 290 290 289 289 289 289 288 288 288 289 288 288 288 288 287 286 287 286 286 286 286 287
300 300 300 300 299 299 298 298 296 294 294 293 293 293 292 291 290 290 289 289 289 288 288 288 288 288 287 287 288 288 287 286 286 285 285 286 287 288
298 299 299 299 298 298 298 298 296 296 295 294 293 293 292 291 290 290 289 289 289 288 288 288 288 287 289 289 288 288 287 286 285 284 285 286 287 288
297 296 297 297 296 296 297 297 296 296 295 295 294 293 292 292 291 290 290 289 289 288 288 287 289 292 288 288 287 287 286 285 284 285 285 286 288 289
295 295 295 295 295 296 296 296 296 295 295 294 294 293 293 292 291 291 290 290 290 289 288 290 292 289 287 286 285 286 284 284 284 285 286 287 288 289
297 296 296 296 297 297 297 296 295 295 294 294 294 293 292 292 291 291 291 290 290 290 289 290 290 287 287 286 285 285 285 283 284 285 286 287 288 289
297 297 297 296 297 297 297 296 295 294 294 293 293 292 292 291 291 291 291 290 290 290 289 289 287 286 285 284 284 284 284 284 285 286 286 286 286 287
296 296 297 297 297 297 296 295 295 294 294 293 292 292 291 291 291 291 291 290 290 289 288 287 286 285 285 284 283 283 283 285 286 287 287 287 287 287

GFSNE_850_thetae_165.txt.gz
Theta_e
308 309 308 309 309 309 310 309 309 309 309 309 309 309 309 308 309 310 311 310 311 311 312 312 312 312 313 314 313 312 313 313 314 314 314 315 315 316
308 309 309 309 309 308 305 305 307 308 308 309 308 308 308 309 308 306 307 310 310 311 311 310 311 311 309 308 309 310 310 310 309 309 309 310 311 311
304 307 308 309 308 307 304 302 306 308 307 308 308 308 308 308 307 305 307 308 309 309 310 308 305 306 302 297 297 297 298 299 300 301 301 300 300 300
298 302 304 307 307 306 303 298 300 305 307 307 308 308 307 307 306 302 305 307 307 308 307 303 301 298 297 297 296 295 295 295 295 295 295 295 296 296
302 299 298 301 303 304 301 297 298 299 305 306 306 305 305 305 300 298 304 306 306 307 302 297 296 294 294 294 295 295 295 295 296 296 295 295 295 295
306 303 300 298 298 299 299 297 297 296 296 296 297 297 296 296 295 296 301 304 305 303 297 294 293 293 294 294 294 294 295 295 295 295 295 295 295 295
307 307 304 301 298 297 297 296 296 296 295 295 294 294 294 293 293 294 295 297 297 295 293 293 293 294 294 294 294 295 295 295 295 295 295 295 294 294
305 306 306 304 301 298 297 296 296 296 295 295 294 293 293 293 293 293 293 293 293 293 293 293 293 293 294 294 294 294 295 294 294 294 293 292 292 292
305 305 306 306 304 301 298 297 296 296 295 295 294 293 293 292 292 292 293 293 292 293 293 293 293 293 293 293 294 294 294 293 293 293 292 292 291 291
304 305 305 306 305 303 300 299 297 296 295 295 294 293 292 292 292 292 292 292 292 292 292 292 292 293 293 293 293 293 292 293 292 292 291 291 291 290
304 304 304 304 304 303 301 300 299 298 295 295 294 294 293 292 291 291 291 291 291 291 291 291 291 292 292 293 292 293 292 292 291 291 290 289 290 290
300 301 302 302 302 302 301 301 300 300 296 295 294 294 293 292 291 291 290 290 290 290 290 290 290 290 291 292 291 291 291 291 290 290 289 289 289 289
301 300 300 300 300 301 301 301 301 299 297 295 294 294 293 292 291 291 290 290 289 289 289 290 290 291 290 290 290 290 290 289 289 289 288 288 288 288
299 299 299 299 299 299 300 300 299 298 297 296 294 294 293 293 292 290 290 289 289 289 289 289 288 289 289 289 289 289 289 289 289 289 288 288 288 287
299 299 300 300 300 300 299 299 298 298 297 296 295 294 293 293 292 290 290 290 289 289 289 289 289 288 288 288 288 288 288 289 289 288 288 287 287 287
300 300 300 299 299 299 300 299 298 297 297 297 295 294 293 293 294 291 290 290 289 289 289 289 288 288 288 288 287 288 288 288 288 287 288 287 287 286
298 298 298 298 298 298 298 299 298 297 297 297 295 294 293 293 293 292 291 290 289 289 289 288 288 288 287 288 287 288 290 288 287 287 287 286 287 286
297 297 297 296 296 297 297 296 296 297 297 296 296 295 294 293 293 293 291 290 289 289 289 288 288 287 288 289 292 293 290 287 286 286 286 285 286 287
297 296 295 295 295 295 296 296 295 295 295 295 295 295 294 293 293 292 292 290 290 289 290 289 288 291 291 291 291 290 289 286 286 286 285 285 286 288
297 297 296 296 296 295 296 295 295 295 295 295 294 294 294 293 293 292 292 291 290 290 290 289 290 291 291 290 290 290 287 285 285 285 285 286 287 289
297 297 297 297 296 296 296 296 295 295 295 295 294 293 293 292 292 292 292 292 291 290 290 290 290 289 288 288 288 289 285 283 284 284 285 286 288 289
296 296 296 296 297 296 296 295 295 295 295 295 294 293 293 292 291 291 291 291 291 291 290 289 288 287 288 287 286 286 285 284 284 285 286 287 287 287
295 296 296 296 296 296 295 294 294 294 294 294 293 293 292 292 291 290 290 290 290 290 290 288 288 287 286 286 285 284 283 284 285 287 287 287 287 288

GFSNE_850_thetae_168.txt.gz
Theta_e
306 308 308 309 309 309 309 310 308 308 309 310 310 310 309 308 308 308 308 306 309 310 310 311 310 310 311 311 313 314 315 315 316 317 318 318 318 318
300 304 307 308 309 309 308 307 304 305 308 308 309 309 308 308 308 308 306 306 308 309 309 309 310 307 307 307 307 308 310 310 311 311 312 313 313 314
303 300 301 305 307 308 308 307 304 301 305 304 307 307 308 307 307 307 306 302 306 308 308 308 306 304 301 301 300 298 297 298 301 303 304 304 303 303
307 304 302 300 302 305 307 306 305 298 299 300 303 305 305 305 305 305 300 299 305 306 307 307 302 301 299 297 296 296 296 296 295 295 295 296 296 296
308 307 306 302 300 299 301 303 303 298 297 298 298 299 298 297 298 297 296 297 303 306 306 303 298 295 295 295 295 295 295 295 296 296 296 296 296 297
306 307 307 307 304 301 299 298 299 298 297 296 296 295 295 295 294 294 294 295 299 302 302 298 295 294 294 294 294 295 295 295 296 296 296 296 296 295
306 306 306 306 307 304 300 299 298 297 296 296 296 295 295 294 294 293 293 293 294 295 295 294 293 293 294 294 294 294 295 295 295 295 295 295 295 295
305 305 305 305 306 306 304 301 298 297 296 296 296 295 295 294 293 293 293 293 293 293 292 292 293 293 293 293 294 294 294 294 294 294 294 294 293 293
304 304 304 305 305 305 305 304 301 299 297 296 296 295 295 294 293 293 292 292 292 292 292 292 292 292 293 293 293 293 294 293 293 293 293 293 292 292
304 304 304 304 305 305 305 304 303 301 299 298 296 296 295 294 293 292 292 292 292 292 292 291 292 292 292 292 293 293 294 293 293 293 292 291 291 291
302 302 303 304 304 303 303 303 303 303 301 299 297 296 295 294 293 292 292 291 291 291 292 291 291 291 291 292 292 293 293 292 292 292 292 291 291 291
300 300 300 300 300 300 301 301 302 302 300 301 299 297 295 295 294 292 291 291 291 290 291 290 290 290 290 291 292 292 292 292 292 291 291 291 290 290
299 299 299 299 299 299 299 300 300 300 299 299 298 297 296 295 294 293 291 291 290 290 290 289 290 290 290 291 291 291 291 290 290 290 290 290 289 289
300 299 299 299 300 300 300 299 299 299 299 298 298 297 296 295 294 293 292 291 290 290 289 289 288 289 289 289 289 290 290 290 289 289 289 289 289 288
300 301 301 300 300 300 300 300 300 299 298 298 298 298 297 296 294 293 292 291 290 290 290 289 289 288 288 288 288 289 289 289 289 289 289 289 288 288
299 299 299 299 298 298 298 298 298 298 298 297 297 297 296 295 294 293 292 293 292 290 290 289 289 288 288 288 288 288 288 288 289 289 288 288 288 288
297 298 298 298 297 297 298 297 297 297 297 297 297 297 297 296 294 293 293 293 293 291 291 289 289 288 288 288 287 288 288 290 294 294 289 289 288 287
297 297 297 297 295 295 295 295 295 295 296 296 296 296 295 295 294 294 293 293 293 291 291 291 289 288 288 288 288 289 292 294 293 290 288 287 287 287
296 297 297 297 296 295 295 295 295 296 295 295 296 294 293 294 293 293 293 293 292 291 291 289 290 290 289 289 290 291 292 291 291 288 287 285 285 287
296 295 296 296 296 296 296 296 296 296 294 294 294 294 293 292 292 292 292 292 292 292 290 290 290 290 290 288 289 290 290 289 288 287 287 285 285 287
295 295 294 295 296 296 296 296 296 295 295 295 294 294 293 293 292 292 291 291 291 291 291 290 290 290 289 288 288 289 288 287 285 285 284 285 286 288
294 294 294 294 295 295 295 295 295 294 295 295 294 293 293 293 292 291 291 291 290 290 291 291 290 289 288 288 287 287 287 287 284 284 285 286 286 287
294 293 293 293 294 294 294 293 294 294 294 293 293 292 292 292 292 291 290 290 290 289 289 289 289 288 288 287 286 286 286 285 284 285 286 287 287 288

GFSNE_850_thetae_174.txt.gz
Theta_e
307 307 307 305 304 306 310 308 307 307 307 309 308 308 307 305 303 303 305 306 307 304 301 307 307 308 308 307 306 307 310 312 316 318 320 321 322 322
307 307 307 307 306 306 305 311 309 307 306 305 305 305 303 301 299 299 301 302 302 300 299 305 307 307 305 305 304 303 301 306 309 310 313 315 316 317
306 306 307 307 307 306 306 304 307 308 308 305 303 303 300 298 298 298 297 297 297 296 297 303 306 307 303 302 302 301 300 299 298 302 305 306 305 307
304 305 306 306 307 306 306 305 304 303 304 303 302 301 299 297 298 297 296 295 295 295 295 298 302 305 304 299 297 298 298 298 297 297 297 297 297 297
303 305 305 306 306 306 306 306 305 304 303 303 301 300 299 297 297 296 295 295 295 294 294 295 297 299 299 297 295 295 295 295 296 296 296 297 297 297
303 304 305 306 306 306 306 306 306 305 304 303 301 300 299 298 297 296 296 295 295 294 294 294 294 294 294 294 294 294 294 295 295 296 296 297 297 297
302 303 303 305 305 305 305 305 305 305 304 304 302 301 300 299 297 297 296 295 294 294 294 294 294 293 293 293 293 294 294 294 295 295 295 295 295 295
303 303 303 303 303 304 304 304 305 305 304 303 304 303 302 299 298 297 296 296 295 295 294 294 293 293 293 293 293 293 294 294 294 294 294 294 294 295
301 301 302 303 303 303 303 303 304 304 304 304 303 304 302 300 298 297 296 295 294 293 293 293 293 293 292 292 293 293 293 293 293 293 294 294 294 294
299 300 300 300 301 302 303 303 303 304 303 303 303 303 302 300 298 297 296 295 295 294 293 292 293 292 292 292 292 292 292 292 292 293 293 293 293 293
299 300 300 300 300 299 300 300 300 300 301 301 301 301 301 300 299 298 298 296 296 295 294 292 292 292 291 291 291 291 291 291 292 292 292 292 292 292
298 298 298 298 298 299 299 299 299 299 299 299 299 299 299 299 299 298 297 296 296 294 294 292 292 291 291 291 291 291 291 291 291 291 291 291 291 291
300 300 300 299 300 300 299 299 299 299 299 299 299 299 299 299 299 298 298 296 295 295 293 291 291 290 290 290 290 290 290 290 291 290 290 290 290 290
299 299 299 299 299 299 299 299 299 299 299 299 299 298 298 298 298 298 297 296 295 294 292 291 290 290 289 289 289 290 289 289 289 289 289 290 289 290
298 297 297 297 298 298 298 298 298 298 297 297 296 297 297 297 297 297 296 296 295 295 293 292 290 289 289 292 292 291 289 289 288 288 289 289 289 289
298 298 298 298 297 297 297 296 296 295 295 295 295 295 295 296 296 296 296 296 295 295 294 292 291 290 290 291 289 289 289 288 289 288 288 288 288 294
296 297 298 298 298 297 295 297 296 295 294 294 294 295 295 295 295 295 295 295 294 294 294 293 292 291 292 292 292 292 290 290 289 288 288 289 291 293
293 294 295 294 297 297 296 293 294 295 295 295 295 294 294 294 294 293 293 293 292 293 293 293 293 292 291 292 291 291 290 290 288 288 288 290 291 292
291 292 294 293 294 296 295 294 292 294 293 294 295 294 294 294 294 293 292 292 292 292 292 292 292 291 290 290 291 291 290 291 291 291 291 291 291 292
291 292 292 293 295 294 293 294 292 292 293 293 294 294 294 294 293 293 292 292 292 291 291 291 291 291 291 291 290 290 289 289 289 289 289 289 289 290
290 290 292 292 294 294 293 292 291 291 292 292 292 293 293 294 293 292 291 291 291 290 290 290 291 290 289 289 289 289 289 288 288 288 288 288 288 290
290 289 291 293 294 294 293 292 292 291 291 291 291 292 293 293 293 292 292 291 290 290 290 290 289 288 288 289 289 289 289 288 288 288 288 287 286 285
290 289 290 291 292 292 292 292 291 290 291 290 291 292 292 293 293 292 292 291 290 290 289 289 288 288 288 288 288 288 288 287 287 287 287 285 285 286

GFSNE_850_thetae_177.txt.gz
Theta_e
307 307 307 307 307 307 307 305 307 306 306 306 308 306 305 304 302 300 299 300 301 301 301 298 305 308 307 306 306 305 304 308 310 315 318 320 322 322
306 306 306 306 307 307 308 308 306 307 306 305 304 305 304 303 299 299 298 297 297 297 296 296 302 306 307 304 304 303 302 301 303 307 309 312 315 317
304 305 305 306 306 307 307 309 309 307 305 305 304 302 303 302 300 298 297 297 296 295 295 295 297 303 306 303 300 300 300 299 299 298 299 303 306 307
302 303 303 305 306 306 306 306 306 307 307 306 304 303 302 301 299 298 297 296 296 295 295 295 295 297 301 301 298 297 297 297 296 296 296 296 296 297
303 302 302 303 305 306 306 306 306 306 306 306 305 305 303 301 300 298 297 297 296 295 295 294 294 294 295 296 296 295 295 295 295 295 296 296 296 296
303 302 302 302 303 305 306 306 306 305 305 305 305 305 304 303 301 299 299 297 296 296 295 294 294 294 294 294 294 293 294 294 295 295 296 296 296 296
302 302 302 303 302 303 305 305 305 305 305 305 304 304 304 303 302 300 299 298 297 297 296 295 294 294 293 293 293 293 293 294 294 294 295 295 296 296
301 301 301 301 302 303 303 303 304 305 304 304 304 304 304 304 302 301 299 298 297 297 296 295 294 294 293 293 293 293 293 294 294 294 294 294 294 294
300 300 300 300 301 301 302 303 303 303 303 303 303 304 304 304 302 301 300 298 298 297 296 297 295 295 293 293 293 293 292 293 293 293 293 293 294 294
298 298 299 300 300 300 300 300 301 302 302 302 303 303 302 302 302 301 300 299 298 298 296 296 296 295 293 293 292 292 292 292 292 292 292 293 293 293
299 298 298 298 299 299 299 299 299 299 299 299 300 300 300 300 300 300 299 298 298 298 297 295 296 294 293 292 292 292 291 291 291 291 292 292 292 292
299 299 299 299 299 299 299 299 299 299 299 299 299 299 299 299 299 298 298 298 297 296 298 295 294 292 291 292 292 291 291 291 291 291 291 291 291 291
298 298 299 299 299 299 299 299 299 299 299 299 299 299 299 298 298 298 298 297 296 296 295 294 293 292 290 290 291 290 290 290 290 290 290 290 290 291
298 298 298 297 298 298 298 298 298 298 299 299 298 298 297 297 297 296 297 297 296 296 294 294 292 292 291 290 289 290 291 293 290 289 289 289 289 290
294 296 298 298 298 298 297 297 297 296 296 297 296 296 296 296 296 296 296 296 297 297 296 295 293 292 290 290 289 289 291 293 291 290 289 288 288 289
291 293 293 296 298 298 298 297 296 296 295 295 294 294 294 294 294 295 295 296 296 296 295 295 294 293 292 290 289 289 292 290 289 289 288 288 288 288
291 291 292 292 292 294 294 297 296 294 295 295 294 294 294 294 294 294 294 295 295 295 294 294 293 293 292 291 291 292 292 292 292 289 290 289 288 288
290 291 292 292 292 293 293 293 295 295 292 294 294 294 294 294 294 294 294 293 293 293 292 292 292 292 292 292 292 292 292 291 290 289 288 288 289 290
291 290 290 291 293 294 295 294 294 293 292 291 291 292 293 293 293 293 293 293 292 292 291 291 291 291 290 290 291 291 291 291 290 290 290 290 290 291
289 290 290 292 293 294 294 294 293 293 291 292 291 291 291 292 293 293 292 292 292 291 291 290 290 291 290 290 290 290 290 290 289 289 289 289 289 290
290 290 291 290 288 291 291 292 292 292 292 291 290 291 291 291 292 292 292 292 291 290 290 290 291 290 289 288 289 290 289 289 288 288 288 288 288 289
289 289 290 290 289 289 289 290 290 291 291 290 291 290 291 291 292 292 292 292 291 290 290 290 289 289 289 289 289 289 289 288 288 288 288 288 287 287
288 288 288 288 289 288 288 288 289 290 291 290 290 290 290 291 291 292 292 292 292 290 289 289 289 289 289 288 288 287 288 288 288 287 288 287 286 285